Location: Caltech
(34.1382°N, 118.1253°W)
Time: 11:33:18
(UTC-07:00)

Tiros 1 despin weight - All Passes

Search period start: 01 September 2014 00:00
Search period end: 11 September 2014 00:00
Orbit: 601 x 653 km, 48.2° (Epoch: 31 August)

Date Brightness Start Highest point End Pass type
(mag) Time Alt. Az. Time Alt. Az. Time Alt. Az.
01 Sep - 03:45:21 10° SSW 03:49:41 42° SE 03:54:06 10° ENE visible
01 Sep - 05:27:13 10° W 05:31:30 36° NNW 05:35:52 10° NE visible
01 Sep - 07:11:30 10° NW 07:14:21 16° N 07:17:14 10° NNE daylight
01 Sep - 08:54:33 10° NNW 08:57:38 17° NNE 09:00:43 10° NE daylight
01 Sep - 10:35:49 10° NW 10:40:22 44° NNE 10:44:53 10° ESE daylight
01 Sep - 12:17:49 10° WNW 12:22:03 33° SW 12:26:15 10° SSE daylight
02 Sep - 02:25:39 10° SSE 02:27:50 13° SE 02:30:01 10° E visible
02 Sep - 04:04:25 10° SW 04:09:02 89° NW 04:13:44 10° NE visible
02 Sep - 05:47:35 10° WNW 05:51:18 23° NNW 05:55:04 10° NNE visible
02 Sep - 07:31:52 10° NNW 07:34:27 14° N 07:37:02 10° NNE daylight
02 Sep - 09:13:51 10° NNW 09:17:36 23° NNE 09:21:21 10° ENE daylight
02 Sep - 10:55:09 10° NW 10:59:55 84° NE 11:04:39 10° SE daylight
02 Sep - 12:38:33 10° W 12:41:11 15° SW 12:43:49 10° SSW daylight
03 Sep - 02:42:57 10° SSW 02:46:56 30° SE 02:51:00 10° ENE visible
03 Sep - 04:24:08 10° WSW 04:28:34 45° NNW 04:33:05 10° NE visible
03 Sep - 06:08:11 10° NW 06:11:16 17° NNW 06:14:21 10° NNE daylight
03 Sep - 07:51:42 10° NNW 07:54:32 16° N 07:57:23 10° NE daylight
03 Sep - 09:33:03 10° NW 09:37:25 35° NNE 09:41:45 10° E daylight
03 Sep - 11:14:45 10° WNW 11:19:17 46° SW 11:23:47 10° SSE daylight
04 Sep - 03:01:40 10° SW 03:06:12 68° SE 03:10:50 10° ENE visible
04 Sep - 04:44:20 10° W 04:48:17 27° NNW 04:52:18 10° NE visible
04 Sep - 06:28:43 10° NW 06:31:19 15° N 06:33:56 10° NNE daylight
04 Sep - 08:11:05 10° NNW 08:14:33 20° NNE 08:18:00 10° ENE daylight
04 Sep - 09:52:19 10° NW 09:57:02 63° NE 10:01:43 10° ESE daylight
04 Sep - 11:34:57 10° W 11:38:29 21° SW 11:41:59 10° S daylight
05 Sep - 01:40:45 10° S 01:44:13 22° SE 01:47:43 10° E night (unlit)
05 Sep - 03:21:08 10° WSW 03:25:39 59° NW 03:30:16 10° NE visible
05 Sep - 05:04:52 10° WNW 05:08:11 19° NNW 05:11:31 10° NNE visible
05 Sep - 06:48:46 10° NNW 06:51:25 15° N 06:54:04 10° NE daylight
05 Sep - 08:30:18 10° NW 08:34:25 29° NNE 08:38:32 10° E daylight
05 Sep - 10:11:46 10° WNW 10:16:28 64° SW 10:21:08 10° SE daylight
06 Sep - 01:59:02 10° SSW 02:03:24 48° SE 02:07:52 10° ENE visible
06 Sep - 03:41:09 10° W 03:45:18 33° NNW 03:49:31 10° NE visible
06 Sep - 05:25:29 10° NW 05:28:12 15° N 05:30:56 10° NNE visible
06 Sep - 07:08:18 10° NNW 07:11:28 18° NNE 07:14:38 10° NE daylight
06 Sep - 08:49:31 10° NW 08:54:07 48° NNE 08:58:42 10° ESE daylight
06 Sep - 10:31:39 10° WNW 10:35:44 29° SW 10:39:47 10° SSE daylight
07 Sep - 00:38:54 10° SSE 00:41:31 15° SE 00:44:09 10° E night (unlit)
07 Sep - 02:18:13 10° SW 02:22:46 79° NW 02:27:25 10° NE visible
07 Sep - 04:01:34 10° WNW 04:05:07 21° NNW 04:08:42 10° NNE visible
07 Sep - 05:45:45 10° NNW 05:48:17 14° N 05:50:49 10° NE visible
07 Sep - 07:27:33 10° NNW 07:31:23 24° NNE 07:35:14 10° ENE daylight
07 Sep - 09:08:52 10° NW 09:13:37 86° SW 09:18:21 10° SE daylight
07 Sep - 10:52:45 10° WSW 10:54:50 13° SW 10:56:55 10° SSW daylight
08 Sep - 00:56:33 10° SSW 01:00:38 34° SE 01:04:47 10° ENE night (unlit)
08 Sep - 02:38:01 10° W 02:42:20 40° NNW 02:46:43 10° NE visible
08 Sep - 04:22:11 10° NW 04:25:05 16° N 04:28:00 10° NNE visible
08 Sep - 06:05:28 10° NNW 06:08:21 16° N 06:11:15 10° NE visible
08 Sep - 07:46:44 10° NW 07:51:09 38° NNE 07:55:34 10° E daylight
08 Sep - 09:28:31 10° WNW 09:32:57 40° SW 09:37:21 10° SSE daylight
08 Sep - 23:38:17 10° SE 23:38:49 10° SE 23:39:21 10° ESE night (unlit)
09 Sep - 01:15:25 10° SW 01:19:55 77° SE 01:24:32 10° NE night (unlit)
09 Sep - 02:58:17 10° WNW 03:02:04 25° NNW 03:05:55 10° NNE visible
09 Sep - 04:42:39 10° NW 04:45:09 14° N 04:47:39 10° NNE visible
09 Sep - 06:24:47 10° NNW 06:28:20 21° NNE 06:31:53 10° ENE daylight
09 Sep - 08:06:00 10° NW 08:10:44 71° NE 08:15:27 10° ESE daylight
09 Sep - 09:48:53 10° W 09:52:07 18° SW 09:55:20 10° S daylight
09 Sep - 23:54:15 10° S 23:57:53 24° SE 00:01:35 10° ENE night (unlit)
10 Sep - 01:34:58 10° WSW 01:39:24 52° NNW 01:43:54 10° NE night (unlit)
10 Sep - 03:18:51 10° WNW 03:21:59 18° NNW 03:25:08 10° NNE visible
10 Sep - 05:02:35 10° NNW 05:05:13 15° N 05:07:53 10° NE visible
10 Sep - 06:43:58 10° NW 06:48:09 31° NNE 06:52:21 10° E daylight
10 Sep - 08:25:30 10° WNW 08:30:07 55° SW 08:34:45 10° SE daylight
